Regional Weather Roundup
Issued by NWS

Home | Current Version | Previous Version | Graphics & Text | Print | Product List | Glossary On
Versions: 1 2 3 4 5 6 7 8 9 10 11 12 13 14 15 16 17 18 19 20 21 22 23 24 25 26 27 28 29 30 31 32 33 34 35 36 37 38 39 40 41 42 43 44 45 46 47 48 49 50
880
ASUS45 KSLC 131910
RWRUT

UTAH REGIONAL WEATHER ROUNDUP
NATIONAL WEATHER SERVICE SALT LAKE CITY UT
1200 PM MST SAT FEB 13 2016

UTZ001>011-023>025-132000-

NORTHERN UTAH

CITY           SKY/WX    TMP DP  RH WIND       PRES   REMARKS
BRIGHAM CITY   CLOUDY    28  26  93 E3        30.37R
HILL AFB       FOG       28  28 100 VRB3      30.32F VSB 1
LOGAN          CLOUDY    25  24  96 CALM      30.33S FOG
OGDEN          CLOUDY    29  29 100 CALM      30.33F FOG
PROVO AIRPORT  FOG       25  21  86 CALM      30.35R VSB 1/2
SALT LAKE CITY CLOUDY    31  28  89 N5        30.34F FOG     WCI  26
VERNAL         CLOUDY    30  23  75 SE5       30.24F HAZE    WCI  25
WENDOVER       CLOUDY    30  27  86 S3        30.35S
HEBER CITY     PTSUNNY   32  23  69 CALM      30.26F
WEST JORDAN    PTSUNNY   32  28  86 CALM      30.33F

$$

UTZ012>022-026-027-132000-

SOUTHERN/CENTRAL UTAH

CITY           SKY/WX    TMP DP  RH WIND       PRES   REMARKS
BLANDING       SUNNY     46  28  50 CALM      30.33F
BRYCE CANYON   SUNNY     48  14  25 NW13      30.31F
CEDAR CITY     SUNNY     48  21  34 CALM      30.25F
DELTA          CLOUDY    23  22  96 S5        30.33S WCI  17
HANKSVILLE     SUNNY     43  34  70 CALM      30.29F
MILFORD        MOSUNNY   21  17  84 N9        30.30R WCI  11
MOAB/CYNLANDS  MOSUNNY   41  33  73 NW6       30.25F
PRICE          SUNNY     42  25  50 CALM      30.26S
ST GEORGE      MOCLDY    54  28  37 CALM      30.24F
KANAB          SUNNY     63  28  27 S3        30.26F

$$

REGIONAL REPORTS     COLORADO/ARIZONA

CITY           SKY/WX    TMP DP  RH WIND       PRES   REMARKS
CRAIG, CO      CLOUDY    28  19  69 CALM      30.22F
GRAND JUNCTION CLOUDY    38  29  70 N5        30.25F WCI  34
RIFLE          CLOUDY    33  21  61 CALM      30.25F
MONTROSE       CLOUDY    46  26  45 CALM      30.24F
CORTEZ         SUNNY     49  29  46 SW5       30.26F
PAGE, AZ       SUNNY     49  32  52 N3        30.24F
GRAND CANYON   SUNNY     61  13  15 W9        30.29F
KINGMAN        SUNNY     67  22  18 N6        30.19S
FLAGSTAFF      SUNNY     58  12  16 SW6       30.30F

$$

REGIONAL REPORTS    NEVADA/IDAHO/WYOMING

CITY           SKY/WX    TMP DP  RH WIND       PRES   REMARKS
LAS VEGAS, NV  MOSUNNY   66  22  18 CALM      30.15S
ELY            PTSUNNY   38  26  62 SE6       30.34R WCI  33
ELKO           SUNNY     32  22  66 W3        30.36S
POCATELLO, ID  CLOUDY    42  33  70 SW31G39   30.24S
BURLEY         LGT RAIN  44  34  67 W18       30.29S
EVANSTON, WY   CLOUDY    38  19  46 SW18      30.24F WCI  28
ROCK SPRINGS   CLOUDY    42  21  43 W18G25    30.16F
KEMMERER       SUNNY     39  23  52 W20G28    30.19F WCI  30

$$




USA.gov is the U.S. government's official web portal to all federal, state and local government web resources and services.